Date String (YYYY-MM-DD hh:mm:ss) UTC,Instrument flags,Ambient pressure (hPa),Sample flow (lpm),Bypass flow (lpm),Sample temperature (°C),Ambient temperature (°C),ASC tube jacket temperature (°C),LED temperature (°C),Box temperature (°C),Sample RH (%),Span deviation,Mass concentration (μg/m³),Mass concentration (μg/m³),Mass concentration (μg/m³)
DateTimeUTC,F1_M11,P_M11,Q1_M11,Q2_M11,T1_M11,T2_M11,T3_M11,T4_M11,T5_M11,U1_M11,ZSPAN_M11,X0_M11,X2_M11,X1_M11
2021-09-25 02:00:00,,0831.6,5.01,0.00,29.8,29.0,00.0,38.8,31.7,17.0,0001.9,0024.93,0006.71,0004.76
2021-09-25 02:01:00,,0831.6,5.01,0.00,29.9,29.0,00.0,38.8,31.7,16.9,0002.2,0024.90,0006.74,0004.78
2021-09-25 02:02:00,,0831.6,5.00,0.00,29.9,29.1,00.0,38.9,31.7,16.8,0000.4,0025.63,0006.80,0004.79
2021-09-25 02:03:00,,0831.6,5.00,0.00,29.9,29.2,00.0,38.9,31.8,16.7,0000.0,0025.22,0006.74,0004.81
2021-09-25 02:04:00,,0831.6,5.00,0.00,30.0,29.2,00.0,38.9,31.8,16.6,0000.0,0024.82,0006.70,0004.83
2021-09-25 02:05:00,,0831.6,5.00,0.00,30.0,29.3,00.0,38.9,31.9,16.6,0000.0,0022.88,0006.69,0004.84
2021-09-25 02:06:00,,0831.6,5.02,0.00,30.0,28.0,00.0,38.9,31.6,16.6,0000.0,0022.60,0006.78,0004.85
2021-09-25 02:07:00,,0831.6,5.00,0.00,29.8,26.3,00.0,38.9,31.0,16.7,0000.0,0022.48,0006.84,0004.87
2021-09-25 02:08:00,,0831.6,5.00,0.00,29.7,26.2,00.0,38.9,31.0,16.8,0000.0,0023.85,0006.86,0004.88
2021-09-25 02:09:00,,0831.6,4.99,0.00,29.6,26.6,00.0,38.9,31.0,16.9,0000.0,0025.38,0006.95,0004.92
2021-09-25 02:10:00,,0831.6,5.00,0.00,29.6,27.1,00.0,38.8,31.2,17.0,0000.0,0025.43,0006.84,0004.93
2021-09-25 02:11:00,,0831.6,5.01,0.00,29.6,27.4,00.0,38.8,31.2,17.0,0000.0,0025.62,0006.87,0004.93
2021-09-25 02:12:00,,0831.7,5.00,0.00,29.6,27.8,00.0,38.8,31.3,17.0,0000.0,0025.67,0006.84,0004.94
2021-09-25 02:13:00,,0831.6,5.01,0.00,29.6,28.0,00.0,38.8,31.4,16.9,0000.0,0025.66,0006.78,0004.96
2021-09-25 02:14:00,,0831.7,4.98,0.00,29.6,28.2,00.0,38.8,31.4,16.9,0000.0,0026.93,0006.83,0004.97
2021-09-25 02:15:00,,0831.7,5.02,0.00,29.7,28.4,00.0,38.8,31.5,16.9,0000.0,0026.60,0006.86,0004.97
2021-09-25 02:16:00,,0831.7,5.00,0.00,29.7,28.6,00.0,38.8,31.5,16.9,0000.0,0026.20,0006.92,0004.99
2021-09-25 02:17:00,,0831.7,5.00,0.00,29.7,28.7,00.0,38.8,31.6,16.8,0000.0,0026.73,0006.90,0004.99
2021-09-25 02:18:00,,0831.7,5.00,0.00,29.8,28.8,00.0,38.8,31.6,16.7,0000.0,0026.45,0006.89,0004.97
2021-09-25 02:19:00,,0831.7,5.00,0.00,29.8,28.8,00.0,38.8,31.7,16.7,0000.0,0026.00,0006.90,0004.97
2021-09-25 02:20:00,,0831.7,4.99,0.00,29.8,28.9,00.0,38.8,31.7,16.7,0000.0,0024.97,0006.86,0004.96
2021-09-25 02:21:00,,0831.8,5.00,0.00,29.9,29.0,00.0,38.9,31.7,16.7,0000.0,0025.16,0006.93,0004.94
2021-09-25 02:22:00,,0831.8,5.01,0.00,29.9,29.0,00.0,38.9,31.7,16.6,0000.0,0024.73,0006.95,0004.94
2021-09-25 02:23:00,,0831.7,4.98,0.00,29.9,29.0,00.0,38.9,31.8,16.6,0000.0,0023.37,0006.97,0004.94
2021-09-25 02:24:00,,0831.7,5.01,0.00,30.0,29.1,00.0,38.9,31.9,16.6,0000.0,0023.20,0007.01,0004.94
2021-09-25 02:25:00,,0831.7,4.99,0.00,30.0,29.1,00.0,39.0,31.9,16.5,0000.0,0022.04,0007.03,0004.93
2021-09-25 02:26:00,,0831.7,5.00,0.00,30.0,29.2,00.0,39.0,31.9,16.5,0000.0,0021.46,0007.05,0004.93
2021-09-25 02:27:00,,0831.7,5.01,0.00,30.1,29.2,00.0,39.0,31.9,16.4,0000.0,0021.62,0006.97,0004.92
2021-09-25 02:28:00,,0831.7,4.99,0.00,30.1,28.8,00.0,39.0,31.8,16.4,0000.0,0020.89,0006.92,0004.92
2021-09-25 02:29:00,,0831.7,5.01,0.00,29.9,26.7,00.0,39.0,31.3,16.5,0000.0,0021.99,0006.91,0004.92
2021-09-25 02:30:00,,0831.7,5.00,0.00,29.8,26.1,00.0,39.0,31.1,16.7,0000.0,0021.42,0006.87,0004.94
2021-09-25 02:31:00,,0831.8,5.01,0.00,29.7,26.4,00.0,38.9,31.2,16.8,0000.0,0021.11,0006.94,0004.95
2021-09-25 02:32:00,,0831.8,5.00,0.00,29.7,26.9,00.0,38.9,31.2,16.8,0000.0,0022.81,0007.00,0004.96
2021-09-25 02:33:00,,0831.8,4.99,0.00,29.6,27.3,00.0,38.9,31.2,16.9,0000.0,0022.62,0007.01,0004.97
2021-09-25 02:34:00,,0831.8,5.01,0.00,29.6,27.6,00.0,38.8,31.3,16.9,0002.4,0023.65,0007.05,0004.98
2021-09-25 02:35:00,,0831.9,4.99,0.00,29.7,27.9,00.0,38.8,31.4,16.9,0001.9,0024.11,0007.06,0004.99
2021-09-25 02:36:00,,0831.8,5.00,0.00,29.7,28.1,00.0,38.8,31.4,16.8,0000.0,0023.86,0007.07,0005.00
2021-09-25 02:37:00,,0831.8,5.00,0.00,29.7,28.3,00.0,38.8,31.5,16.8,0000.0,0023.55,0007.03,0005.00
2021-09-25 02:38:00,,0831.9,5.00,0.00,29.7,28.4,00.0,38.8,31.5,16.8,0000.0,0023.32,0007.05,0005.01
2021-09-25 02:39:00,,0831.9,5.00,0.00,29.7,28.5,00.0,38.8,31.5,16.8,0000.1,0023.98,0007.09,0005.01
2021-09-25 02:40:00,,0831.9,5.01,0.00,29.8,28.6,00.0,38.8,31.6,16.8,0001.0,0023.48,0007.07,0005.02
2021-09-25 02:41:00,,0831.9,4.99,0.00,29.8,28.7,00.0,38.8,31.6,16.8,0000.5,0023.74,0007.06,0005.02
2021-09-25 02:42:00,,0832.0,4.99,0.00,29.8,28.7,00.0,38.8,31.7,16.7,0000.0,0024.06,0007.02,0005.02
2021-09-25 02:43:00,,0832.0,5.01,0.00,29.8,28.8,00.0,38.9,31.7,16.7,0000.2,0022.30,0006.93,0005.01
2021-09-25 02:44:00,,0832.0,4.99,0.00,29.9,28.9,00.0,38.9,31.7,16.7,0000.0,0022.28,0006.92,0005.03
2021-09-25 02:45:00,,0832.0,5.00,0.00,29.9,28.9,00.0,38.9,31.8,16.6,0000.0,0021.28,0006.95,0005.03
2021-09-25 02:46:00,,0831.9,5.01,0.00,29.9,29.0,00.0,38.9,31.7,16.6,0000.0,0020.89,0006.99,0005.04
2021-09-25 02:47:00,,0832.0,4.99,0.00,30.0,29.0,00.0,38.9,31.8,16.6,0000.0,0020.66,0006.99,0005.03
2021-09-25 02:48:00,,0832.0,5.00,0.00,30.0,29.1,00.0,38.9,31.9,16.5,0000.0,0021.63,0007.08,0005.05
2021-09-25 02:49:00,,0832.0,5.00,0.00,30.0,29.1,00.0,39.0,31.8,16.5,0000.0,0024.29,0007.08,0005.06
2021-09-25 02:50:00,,0831.9,4.99,0.00,30.0,29.2,00.0,39.0,31.9,16.5,0000.0,0024.03,0007.06,0005.07
2021-09-25 02:51:00,,0832.0,5.01,0.00,30.1,29.2,00.0,39.0,31.9,16.5,0000.0,0023.98,0007.11,0005.08
2021-09-25 02:52:00,,0832.0,5.00,0.00,30.1,29.2,00.0,39.0,31.9,16.5,0000.0,0025.64,0007.12,0005.08
2021-09-25 02:53:00,,0832.0,5.00,0.00,30.1,29.3,00.0,39.1,31.9,16.4,0000.0,0024.73,0007.11,0005.07
2021-09-25 02:54:00,,0832.0,5.01,0.00,30.1,29.2,00.0,39.1,31.9,16.4,0000.0,0024.68,0007.13,0005.07
2021-09-25 02:55:00,,0831.9,4.99,0.00,30.1,29.3,00.0,39.1,32.0,16.4,0000.0,0024.25,0007.14,0005.07
2021-09-25 02:56:00,,0832.0,5.00,0.00,30.1,28.3,00.0,39.1,31.7,16.4,0000.0,0024.33,0007.07,0005.08
2021-09-25 02:57:00,,0832.0,4.99,0.00,30.0,26.4,00.0,39.1,31.2,16.5,0000.4,0025.01,0007.09,0005.10
2021-09-25 02:58:00,,0832.0,5.00,0.00,29.8,26.2,00.0,39.1,31.1,16.6,0000.3,0025.43,0007.14,0005.12
2021-09-25 02:59:00,,0832.0,5.01,0.00,29.7,26.6,00.0,39.0,31.1,16.8,-000.5,0024.19,0007.07,0005.13
